| time (UTC) | temp F | wind direction | speed knots | gust knots | rain 1hr in | rain 24hr in | rain mn in | humidity % | barometer mb |
| 20260505185507 | 80 | 276 | 5.2 | 13.0 | 0.00 | 0.00 | 0.00 | 35 | 1003.8 |
| 20260505185006 | 80 | 276 | 4.3 | 13.0 | 0.00 | 0.00 | 0.00 | 35 | 1003.9 |
| 20260505184632 | 79 | 276 | 4.3 | 16.5 | 0.00 | 0.00 | 0.00 | 37 | 1004.1 |
| 20260505184505 | 80 | 276 | 4.3 | 16.5 | 0.00 | 0.00 | 0.00 | 36 | 1004.2 |
| 20260505184003 | 80 | 276 | 5.2 | 16.5 | 0.00 | 0.00 | 0.00 | 36 | 1004.2 |
| 20260505183502 | 80 | 274 | 4.3 | 13.0 | 0.00 | 0.00 | 0.00 | 36 | 1004.1 |
| 20260505182501 | 79 | 274 | 4.3 | 12.2 | 0.00 | 0.00 | 0.00 | 39 | 1004.4 |
| 20260505182001 | 79 | 274 | 4.3 | 16.5 | 0.00 | 0.00 | 0.00 | 37 | 1004.6 |
| 20260505181622 | 79 | 274 | 3.5 | 16.5 | 0.00 | 0.00 | 0.00 | 38 | 1004.5 |
| 20260505181500 | 79 | 274 | 5.2 | 16.5 | 0.00 | 0.00 | 0.00 | 38 | 1004.6 |
| 20260505181001 | 79 | 276 | 4.3 | 10.4 | 0.00 | 0.00 | 0.00 | 39 | 1004.7 |
| 20260505180502 | 79 | 276 | 3.5 | 10.4 | 0.00 | 0.00 | 0.00 | 40 | 1004.8 |
| 20260505180031 | 78 | 276 | 3.5 | 10.4 | 0.00 | 0.00 | 0.00 | 40 | 1004.9 |
| 20260505180001 | 78 | 276 | 3.5 | 10.4 | 0.00 | 0.00 | 0.00 | 41 | 1004.9 |
| 20260505175502 | 78 | 276 | 4.3 | 13.0 | 0.00 | 0.00 | 0.00 | 41 | 1004.8 |
| 20260505174620 | 77 | 276 | 5.2 | 13.0 | 0.00 | 0.00 | 0.00 | 40 | 1005.1 |
| 20260505174502 | 78 | 276 | 4.3 | 13.0 | 0.00 | 0.00 | 0.00 | 40 | 1004.9 |
| 20260505174001 | 78 | 276 | 4.3 | 13.0 | 0.00 | 0.00 | 0.00 | 42 | 1005.0 |
| 20260505173501 | 78 | 276 | 3.5 | 8.7 | 0.00 | 0.00 | 0.00 | 42 | 1005.1 |
| 20260505173006 | 77 | 276 | 3.5 | 8.7 | 0.00 | 0.01 | 0.00 | 42 | 1005.3 |
| 20260505173001 | 77 | 276 | 3.5 | 8.7 | 0.00 | 0.00 | 0.00 | 42 | 1005.2 |
| 20260505172001 | 77 | 276 | 4.3 | 14.8 | 0.00 | 0.00 | 0.00 | 41 | 1005.7 |
| 20260505171604 | 76 | 276 | 6.1 | 14.8 | 0.00 | 0.01 | 0.00 | 41 | 1005.7 |
| 20260505171501 | 77 | 276 | 3.5 | 12.2 | 0.00 | 0.00 | 0.00 | 41 | 1005.9 |
| 20260505171001 | 77 | 276 | 3.5 | 10.4 | 0.00 | 0.00 | 0.00 | 42 | 1005.8 |
| 20260505170501 | 76 | 276 | 3.5 | 10.4 | 0.00 | 0.00 | 0.00 | 42 | 1005.8 |
| 20260505170012 | 75 | 276 | 3.5 | 15.6 | 0.00 | 0.01 | 0.00 | 43 | 1005.9 |
| 20260505170002 | 76 | 276 | 3.5 | 15.6 | 0.00 | 0.00 | 0.00 | 43 | 1005.9 |
| 20260505165501 | 75 | 276 | 3.5 | 15.6 | 0.00 | 0.00 | 0.00 | 46 | 1006.1 |
| 20260505164602 | 75 | 276 | 2.6 | 9.6 | 0.00 | 0.01 | 0.00 | 44 | 1006.0 |
| 20260505164501 | 75 | 276 | 3.5 | 10.4 | 0.00 | 0.00 | 0.00 | 42 | 1006.1 |
| 20260505163502 | 74 | 277 | 3.5 | 10.4 | 0.00 | 0.01 | 0.00 | 45 | 1006.1 |
| 20260505162001 | 73 | 277 | 3.5 | 8.7 | 0.00 | 0.01 | 0.00 | 47 | 1006.5 |
| 20260505161602 | 72 | 277 | 3.5 | 8.7 | 0.00 | 0.02 | 0.00 | 45 | 1006.6 |
| 20260505161501 | 73 | 277 | 3.5 | 8.7 | 0.00 | 0.01 | 0.00 | 45 | 1006.7 |
| 20260505161001 | 73 | 277 | 3.5 | 8.7 | 0.00 | 0.02 | 0.00 | 45 | 1006.6 |
| 20260505153156 | 72 | 277 | 1.7 | 7.0 | 0.00 | 0.02 | 0.00 | 45 | 1007.1 |
| 20260505152953 | 73 | 277 | 3.5 | 8.7 | 0.00 | 0.02 | 0.00 | 45 | 1007.1 |
| 20260505151953 | 72 | 277 | 4.3 | 11.3 | 0.00 | 0.02 | 0.00 | 45 | 1007.2 |
| 20260505151556 | 71 | 277 | 3.5 | 8.7 | 0.00 | 0.02 | 0.00 | 45 | 1007.4 |
| 20260505151454 | 72 | 277 | 3.5 | 8.7 | 0.00 | 0.02 | 0.00 | 44 | 1007.3 |
| 20260505150954 | 72 | 277 | 3.5 | 9.6 | 0.00 | 0.02 | 0.00 | 46 | 1007.3 |
| 20260505150454 | 72 | 277 | 3.5 | 9.6 | 0.00 | 0.02 | 0.00 | 45 | 1007.2 |
| 20260505150158 | 71 | 277 | 1.7 | 8.7 | 0.00 | 0.02 | 0.00 | 47 | 1007.4 |
| 20260505140440 | 68 | 277 | 2.6 | 7.8 | 0.00 | 0.02 | 0.00 | 49 | 1007.4 |
| 20260505140142 | 67 | 277 | 2.6 | 7.8 | 0.00 | 0.02 | 0.00 | 48 | 1007.5 |
| 20260505130129 | 63 | 276 | 0.0 | 7.0 | 0.00 | 0.02 | 0.00 | 55 | 1008.4 |
| 20260505124929 | 62 | 276 | 1.7 | 7.8 | 0.00 | 0.02 | 0.00 | 56 | 1008.2 |
| 20260505124532 | 61 | 276 | 1.7 | 7.8 | 0.00 | 0.02 | 0.00 | 57 | 1008.6 |
| 20260505124430 | 62 | 276 | 2.6 | 7.8 | 0.00 | 0.02 | 0.00 | 56 | 1008.3 |
| 20260505123930 | 62 | 276 | 0.9 | 6.1 | 0.00 | 0.02 | 0.00 | 58 | 1008.3 |
| 20260505123429 | 61 | 276 | 0.9 | 3.5 | 0.00 | 0.02 | 0.00 | 59 | 1008.1 |
| 20260505123134 | 60 | 276 | 0.0 | 3.5 | 0.00 | 0.02 | 0.00 | 59 | 1008.4 |
| 20260505122928 | 60 | 276 | 0.9 | 3.5 | 0.00 | 0.02 | 0.00 | 61 | 1008.1 |
| 20260505121930 | 58 | 276 | 0.9 | 3.5 | 0.00 | 0.02 | 0.00 | 61 | 1008.1 |
| 20260505121653 | 57 | 276 | 0.9 | 5.2 | 0.00 | 0.02 | 0.00 | 61 | 1008.5 |
| 20260505120928 | 58 | 276 | 1.7 | 5.2 | 0.00 | 0.02 | 0.00 | 62 | 1008.2 |
| 20260505120128 | 57 | 276 | 1.7 | 4.3 | 0.00 | 0.02 | 0.00 | 62 | 1008.6 |
| 20260505115932 | 57 | 276 | 0.9 | 6.1 | 0.00 | 0.02 | 0.00 | 62 | 1008.3 |
| 20260505115430 | 57 | 276 | 0.9 | 6.1 | 0.00 | 0.02 | 0.00 | 62 | 1008.3 |
| 20260505114929 | 57 | 276 | 1.7 | 5.2 | 0.00 | 0.02 | 0.00 | 63 | 1008.3 |
| 20260505114513 | 56 | 276 | 0.9 | 5.2 | 0.00 | 0.02 | 0.00 | 64 | 1008.8 |
| 20260505114431 | 56 | 276 | 1.7 | 7.8 | 0.00 | 0.02 | 0.00 | 64 | 1008.4 |
| 20260505113930 | 56 | 276 | 1.7 | 7.8 | 0.00 | 0.02 | 0.00 | 64 | 1008.3 |
| 20260505113428 | 56 | 276 | 1.7 | 5.2 | 0.00 | 0.02 | 0.00 | 65 | 1008.4 |
| 20260505113105 | 55 | 276 | 0.9 | 5.2 | 0.00 | 0.02 | 0.00 | 65 | 1008.8 |
| 20260505112929 | 55 | 276 | 1.7 | 5.2 | 0.00 | 0.02 | 0.00 | 66 | 1008.4 |
| 20260505112429 | 55 | 276 | 0.9 | 5.2 | 0.00 | 0.02 | 0.00 | 67 | 1008.4 |
| 20260505111929 | 54 | 276 | 0.9 | 5.2 | 0.00 | 0.02 | 0.00 | 67 | 1008.3 |
| 20260505111505 | 53 | 276 | 0.0 | 5.2 | 0.00 | 0.02 | 0.00 | 69 | 1008.7 |
| 20260505111430 | 53 | 276 | 0.9 | 5.2 | 0.00 | 0.02 | 0.00 | 69 | 1008.3 |
| 20260505110929 | 52 | 276 | 0.9 | 3.5 | 0.00 | 0.02 | 0.00 | 71 | 1008.4 |
| 20260505110429 | 52 | 276 | 0.0 | 1.7 | 0.00 | 0.02 | 0.00 | 72 | 1008.5 |
| 20260505101929 | 48 | 276 | 0.0 | 0.0 | 0.00 | 0.02 | 0.00 | 80 | 1008.3 |
| 20260505101503 | 47 | 276 | 0.0 | 0.0 | 0.00 | 0.02 | 0.00 | 80 | 1008.7 |
| 20260505101428 | 48 | 276 | 0.0 | 0.0 | 0.00 | 0.02 | 0.00 | 79 | 1008.3 |
| 20260505100930 | 48 | 276 | 0.0 | 0.0 | 0.00 | 0.02 | 0.00 | 79 | 1008.2 |
| 20260505100430 | 48 | 276 | 0.0 | 0.0 | 0.00 | 0.02 | 0.00 | 80 | 1008.2 |
| 20260505100110 | 47 | 276 | 0.0 | 0.0 | 0.00 | 0.02 | 0.00 | 80 | 1008.6 |
| 20260505095928 | 48 | 276 | 0.0 | 0.0 | 0.00 | 0.02 | 0.00 | 80 | 1008.2 |
| 20260505095429 | 48 | 276 | 0.0 | 0.0 | 0.00 | 0.02 | 0.00 | 79 | 1008.1 |
| 20260505094928 | 48 | 276 | 0.0 | 0.0 | 0.00 | 0.02 | 0.00 | 78 | 1008.2 |
| 20260505094659 | 48 | 276 | 0.0 | 0.0 | 0.00 | 0.02 | 0.00 | 79 | 1008.6 |
| 20260505094428 | 48 | 276 | 0.0 | 0.0 | 0.00 | 0.02 | 0.00 | 78 | 1008.1 |
| 20260505093928 | 48 | 276 | 0.0 | 0.0 | 0.00 | 0.02 | 0.00 | 78 | 1008.2 |
| 20260505093429 | 49 | 276 | 0.0 | 0.0 | 0.00 | 0.02 | 0.00 | 77 | 1008.2 |
| 20260505093158 | 49 | 276 | 0.0 | 0.0 | 0.00 | 0.02 | 0.00 | 76 | 1008.5 |
| 20260505092429 | 49 | 276 | 0.0 | 0.0 | 0.00 | 0.02 | 0.00 | 76 | 1007.9 |
| 20260505091931 | 49 | 276 | 0.0 | 0.0 | 0.00 | 0.02 | 0.00 | 75 | 1008.1 |
| 20260505091650 | 49 | 276 | 0.0 | 0.0 | 0.00 | 0.02 | 0.00 | 75 | 1008.5 |
| 20260505091430 | 50 | 276 | 0.0 | 0.0 | 0.00 | 0.02 | 0.00 | 74 | 1008.1 |
| 20260505090931 | 50 | 276 | 0.0 | 0.0 | 0.00 | 0.02 | 0.00 | 75 | 1008.1 |
| 20260505090429 | 50 | 276 | 0.0 | 2.6 | 0.00 | 0.02 | 0.00 | 74 | 1008.1 |
| 20260505090047 | 50 | 276 | 0.0 | 2.6 | 0.00 | 0.02 | 0.00 | 74 | 1008.6 |
| 20260505085930 | 51 | 276 | 0.9 | 2.6 | 0.00 | 0.02 | 0.00 | 73 | 1008.2 |
| 20260505085428 | 51 | 276 | 0.9 | 2.6 | 0.00 | 0.02 | 0.00 | 72 | 1008.0 |
| 20260505084929 | 51 | 276 | 0.0 | 2.6 | 0.00 | 0.02 | 0.00 | 72 | 1008.1 |
| 20260505084630 | 51 | 276 | 0.0 | 2.6 | 0.00 | 0.02 | 0.00 | 71 | 1008.6 |
| 20260505084430 | 51 | 276 | 0.0 | 2.6 | 0.00 | 0.02 | 0.00 | 72 | 1008.1 |
| 20260505083930 | 51 | 276 | 0.9 | 2.6 | 0.00 | 0.02 | 0.00 | 71 | 1008.1 |
| 20260505083429 | 51 | 276 | 0.9 | 2.6 | 0.00 | 0.02 | 0.00 | 71 | 1008.2 |
| 20260505083153 | 50 | 276 | 0.9 | 2.6 | 0.00 | 0.02 | 0.00 | 72 | 1008.7 |
| 20260505082430 | 50 | 276 | 0.0 | 1.7 | 0.00 | 0.02 | 0.00 | 73 | 1008.2 |
| 20260505081613 | 49 | 276 | 0.0 | 0.9 | 0.00 | 0.02 | 0.00 | 75 | 1009.0 |
| 20260505081429 | 49 | 276 | 0.0 | 0.9 | 0.00 | 0.02 | 0.00 | 75 | 1008.5 |
| 20260505080929 | 49 | 276 | 0.0 | 0.9 | 0.00 | 0.02 | 0.00 | 75 | 1008.5 |
| 20260505080430 | 49 | 276 | 0.0 | 0.0 | 0.00 | 0.02 | 0.00 | 75 | 1008.4 |
| 20260505080005 | 49 | 276 | 0.0 | 0.0 | 0.00 | 0.02 | 0.00 | 74 | 1009.0 |
| 20260505075931 | 50 | 276 | 0.0 | 0.0 | 0.00 | 0.02 | 0.00 | 74 | 1008.4 |
| 20260505075430 | 50 | 276 | 0.0 | 0.0 | 0.00 | 0.02 | 0.00 | 73 | 1008.5 |
| 20260505074930 | 50 | 276 | 0.0 | 0.0 | 0.00 | 0.02 | 0.00 | 73 | 1008.5 |
| 20260505074603 | 50 | 276 | 0.0 | 0.0 | 0.00 | 0.02 | 0.00 | 72 | 1008.9 |
| 20260505074430 | 51 | 276 | 0.0 | 0.0 | 0.00 | 0.02 | 0.00 | 71 | 1008.4 |
| 20260505073929 | 51 | 276 | 0.0 | 1.7 | 0.00 | 0.02 | 0.00 | 69 | 1008.3 |
| 20260505073430 | 52 | 276 | 0.9 | 3.5 | 0.00 | 0.02 | 0.00 | 68 | 1008.3 |
| 20260505073002 | 52 | 276 | 0.9 | 3.5 | 0.00 | 0.02 | 0.00 | 68 | 1008.9 |
| 20260505072929 | 52 | 276 | 0.9 | 3.5 | 0.00 | 0.02 | 0.00 | 68 | 1008.3 |
| 20260505072430 | 52 | 276 | 0.0 | 2.6 | 0.00 | 0.02 | 0.00 | 68 | 1008.4 |
| 20260505071930 | 52 | 276 | 0.0 | 4.3 | 0.00 | 0.02 | 0.00 | 68 | 1008.4 |
| 20260505071606 | 52 | 276 | 0.0 | 4.3 | 0.00 | 0.02 | 0.00 | 68 | 1009.0 |
| 20260505071429 | 52 | 276 | 0.0 | 4.3 | 0.00 | 0.02 | 0.00 | 68 | 1008.4 |
| 20260505070430 | 52 | 276 | 0.9 | 4.3 | 0.00 | 0.02 | 0.00 | 69 | 1008.4 |
| 20260505070149 | 51 | 276 | 0.0 | 4.3 | 0.00 | 0.02 | 0.00 | 69 | 1009.0 |
| 20260505064929 | 51 | 276 | 0.9 | 2.6 | 0.00 | 0.02 | 0.00 | 69 | 1008.5 |
| 20260505064703 | 50 | 276 | 0.0 | 1.7 | 0.00 | 0.02 | 0.00 | 69 | 1009.2 |
| 20260505063930 | 51 | 276 | 0.0 | 1.7 | 0.00 | 0.02 | 0.00 | 68 | 1008.6 |
| 20260505063430 | 51 | 276 | 0.0 | 1.7 | 0.00 | 0.02 | 0.00 | 67 | 1008.5 |
| 20260505063005 | 51 | 276 | 0.0 | 2.6 | 0.00 | 0.02 | 0.02 | 67 | 1009.1 |
| 20260505062930 | 52 | 276 | 0.0 | 2.6 | 0.00 | 0.02 | 0.00 | 66 | 1008.5 |
| 20260505061929 | 53 | 276 | 0.0 | 2.6 | 0.00 | 0.02 | 0.00 | 65 | 1008.4 |
| 20260505061605 | 52 | 276 | 0.0 | 3.5 | 0.00 | 0.02 | 0.02 | 65 | 1009.1 |
| 20260505061428 | 53 | 276 | 0.9 | 3.5 | 0.00 | 0.02 | 0.00 | 64 | 1008.4 |
| 20260505060929 | 53 | 276 | 0.9 | 3.5 | 0.00 | 0.02 | 0.00 | 65 | 1008.5 |
| 20260505060429 | 52 | 276 | 0.0 | 2.6 | 0.00 | 0.02 | 0.00 | 66 | 1008.4 |
| 20260505060149 | 52 | 276 | 0.0 | 2.6 | 0.00 | 0.02 | 0.02 | 66 | 1009.1 |
| 20260505055428 | 52 | 276 | 0.0 | 2.6 | 0.00 | 0.02 | 0.00 | 65 | 1008.5 |
| 20260505054927 | 53 | 276 | 0.9 | 3.5 | 0.00 | 0.02 | 0.00 | 64 | 1008.4 |
| 20260505054656 | 53 | 276 | 0.0 | 3.5 | 0.00 | 0.02 | 0.02 | 63 | 1009.1 |
| 20260505053925 | 53 | 276 | 0.9 | 3.5 | 0.00 | 0.02 | 0.00 | 63 | 1008.4 |
| 20260505053425 | 53 | 276 | 0.9 | 3.5 | 0.00 | 0.02 | 0.00 | 64 | 1008.4 |
| 20260505053156 | 53 | 276 | 0.9 | 3.5 | 0.00 | 0.02 | 0.02 | 63 | 1009.0 |
| 20260505052924 | 53 | 276 | 0.9 | 3.5 | 0.00 | 0.02 | 0.00 | 64 | 1008.4 |
| 20260505052426 | 53 | 276 | 1.7 | 4.3 | 0.00 | 0.02 | 0.00 | 66 | 1008.3 |
| 20260505051925 | 51 | 276 | 0.9 | 4.3 | 0.00 | 0.02 | 0.00 | 69 | 1008.4 |
| 20260505051650 | 49 | 276 | 0.9 | 2.6 | 0.00 | 0.02 | 0.02 | 73 | 1008.9 |
| 20260505050922 | 48 | 276 | 0.0 | 2.6 | 0.00 | 0.02 | 0.00 | 76 | 1008.4 |
| 20260505050153 | 46 | 276 | 0.0 | 0.0 | 0.00 | 0.02 | 0.02 | 79 | 1009.0 |
| 20260505041550 | 48 | 276 | 0.0 | 1.7 | 0.00 | 0.02 | 0.02 | 77 | 1008.6 |
| 20260505041405 | 49 | 276 | 0.0 | 1.7 | 0.00 | 0.02 | 0.00 | 78 | 1007.9 |
| 20260505040401 | 48 | 276 | 0.0 | 3.5 | 0.00 | 0.02 | 0.00 | 80 | 1007.9 |
| 20260505040132 | 47 | 276 | 0.0 | 1.7 | 0.00 | 0.02 | 0.02 | 80 | 1008.5 |
| 20260505035902 | 47 | 276 | 0.0 | 1.7 | 0.00 | 0.02 | 0.02 | 81 | 1007.9 |
| 20260505035401 | 47 | 276 | 0.0 | 0.0 | 0.00 | 0.02 | 0.02 | 82 | 1007.8 |
| 20260505034902 | 47 | 276 | 0.0 | 0.0 | 0.00 | 0.02 | 0.02 | 82 | 1007.9 |
| 20260505034524 | 47 | 276 | 0.0 | 0.0 | 0.00 | 0.02 | 0.02 | 81 | 1008.5 |
| 20260505034401 | 47 | 276 | 0.0 | 0.0 | 0.00 | 0.02 | 0.02 | 81 | 1007.9 |
| 20260505033902 | 48 | 276 | 0.0 | 0.0 | 0.00 | 0.02 | 0.02 | 80 | 1007.8 |
| 20260505033401 | 48 | 276 | 0.0 | 0.0 | 0.00 | 0.02 | 0.02 | 80 | 1007.8 |
| 20260505033117 | 48 | 276 | 0.0 | 0.0 | 0.00 | 0.02 | 0.02 | 80 | 1008.4 |
| 20260505032904 | 48 | 276 | 0.0 | 0.9 | 0.00 | 0.02 | 0.02 | 80 | 1007.6 |
| 20260505031504 | 48 | 276 | 0.0 | 0.0 | 0.00 | 0.02 | 0.02 | 81 | 1008.4 |
| 20260505031401 | 48 | 276 | 0.0 | 0.0 | 0.00 | 0.02 | 0.02 | 80 | 1007.7 |
| 20260505030902 | 49 | 276 | 0.0 | 0.9 | 0.00 | 0.02 | 0.02 | 80 | 1007.7 |
| 20260505030401 | 49 | 276 | 0.0 | 0.9 | 0.00 | 0.02 | 0.02 | 79 | 1007.8 |
| 20260505025900 | 49 | 276 | 0.0 | 0.0 | 0.00 | 0.02 | 0.02 | 79 | 1007.8 |
| 20260505025401 | 49 | 276 | 0.0 | 0.0 | 0.00 | 0.02 | 0.02 | 78 | 1007.8 |
| 20260505024904 | 49 | 276 | 0.0 | 0.0 | 0.00 | 0.02 | 0.02 | 77 | 1007.8 |
| 20260505024623 | 49 | 276 | 0.0 | 0.0 | 0.00 | 0.02 | 0.02 | 77 | 1008.6 |
| 20260505023901 | 49 | 276 | 0.0 | 0.0 | 0.00 | 0.02 | 0.02 | 77 | 1008.1 |
| 20260505023401 | 49 | 276 | 0.0 | 0.0 | 0.00 | 0.02 | 0.02 | 76 | 1008.1 |
| 20260505023054 | 49 | 276 | 0.0 | 0.0 | 0.00 | 0.02 | 0.02 | 76 | 1008.8 |
| 20260505022902 | 50 | 276 | 0.0 | 0.0 | 0.00 | 0.02 | 0.02 | 75 | 1008.1 |
| 20260505022403 | 50 | 276 | 0.0 | 0.0 | 0.00 | 0.02 | 0.02 | 75 | 1008.1 |
| 20260505021900 | 51 | 276 | 0.0 | 0.0 | 0.00 | 0.02 | 0.02 | 75 | 1008.1 |
| 20260505021647 | 50 | 276 | 0.0 | 0.0 | 0.00 | 0.02 | 0.02 | 75 | 1008.7 |
| 20260505021402 | 51 | 276 | 0.0 | 0.0 | 0.00 | 0.02 | 0.02 | 74 | 1008.2 |
| 20260505020400 | 51 | 276 | 0.0 | 0.0 | 0.00 | 0.02 | 0.02 | 73 | 1008.2 |
| 20260505020134 | 51 | 276 | 0.0 | 0.0 | 0.00 | 0.02 | 0.02 | 74 | 1008.8 |
| 20260505015355 | 52 | 276 | 0.0 | 0.0 | 0.00 | 0.02 | 0.02 | 73 | 1008.2 |
| 20260505014849 | 53 | 276 | 0.0 | 0.0 | 0.00 | 0.02 | 0.02 | 72 | 1008.2 |
| 20260505014632 | 52 | 276 | 0.0 | 0.0 | 0.00 | 0.02 | 0.02 | 71 | 1008.8 |
| 20260505014348 | 53 | 276 | 0.0 | 0.0 | 0.00 | 0.02 | 0.02 | 71 | 1008.1 |
| 20260505013847 | 53 | 276 | 0.0 | 0.0 | 0.00 | 0.02 | 0.02 | 70 | 1007.9 |
| 20260505013344 | 53 | 276 | 0.0 | 0.0 | 0.00 | 0.02 | 0.02 | 70 | 1007.9 |
| 20260505013019 | 53 | 276 | 0.0 | 0.0 | 0.00 | 0.02 | 0.02 | 69 | 1008.5 |
| 20260505012843 | 53 | 276 | 0.0 | 0.0 | 0.00 | 0.02 | 0.02 | 70 | 1007.8 |
| 20260505011838 | 54 | 276 | 0.0 | 0.0 | 0.00 | 0.02 | 0.02 | 70 | 1007.7 |
| 20260505011610 | 53 | 276 | 0.0 | 0.0 | 0.00 | 0.02 | 0.02 | 69 | 1008.4 |
| 20260505011337 | 54 | 276 | 0.0 | 0.0 | 0.00 | 0.02 | 0.02 | 68 | 1007.6 |
| 20260505010834 | 54 | 276 | 0.0 | 0.9 | 0.00 | 0.02 | 0.02 | 67 | 1007.5 |
| 20260505010331 | 55 | 276 | 0.0 | 0.9 | 0.00 | 0.02 | 0.02 | 67 | 1007.5 |
| 20260505010001 | 54 | 276 | 0.0 | 0.9 | 0.00 | 0.02 | 0.02 | 67 | 1008.2 |
| 20260505005831 | 55 | 276 | 0.0 | 0.9 | 0.00 | 0.02 | 0.02 | 68 | 1007.5 |
| 20260505005330 | 55 | 276 | 0.0 | 0.9 | 0.00 | 0.02 | 0.02 | 68 | 1007.5 |
| 20260505004830 | 56 | 276 | 0.0 | 0.9 | 0.00 | 0.02 | 0.02 | 66 | 1007.4 |
| 20260505004558 | 55 | 276 | 0.0 | 0.9 | 0.00 | 0.02 | 0.02 | 65 | 1008.1 |
| 20260505004328 | 56 | 276 | 0.0 | 0.9 | 0.00 | 0.02 | 0.02 | 64 | 1007.4 |
| 20260505003829 | 56 | 276 | 0.0 | 2.6 | 0.00 | 0.02 | 0.02 | 63 | 1007.4 |
| 20260505003326 | 57 | 276 | 0.9 | 2.6 | 0.00 | 0.02 | 0.02 | 61 | 1007.2 |
| 20260505003149 | 57 | 276 | 0.0 | 2.6 | 0.00 | 0.02 | 0.02 | 61 | 1007.9 |
| 20260505002824 | 56 | 276 | 0.0 | 1.7 | 0.00 | 0.02 | 0.02 | 59 | 1007.2 |
| 20260505001823 | 55 | 276 | 0.0 | 0.0 | 0.00 | 0.02 | 0.02 | 65 | 1007.1 |
| 20260505001545 | 55 | 276 | 0.0 | 0.0 | 0.00 | 0.02 | 0.02 | 65 | 1007.7 |
| 20260505001320 | 55 | 276 | 0.0 | 0.0 | 0.00 | 0.02 | 0.02 | 64 | 1007.0 |
| 20260505000817 | 56 | 276 | 0.0 | 0.0 | 0.00 | 0.02 | 0.02 | 64 | 1006.8 |
| 20260505000318 | 56 | 276 | 0.0 | 0.0 | 0.00 | 0.02 | 0.02 | 66 | 1006.7 |
| 20260505000141 | 56 | 276 | 0.0 | 0.0 | 0.00 | 0.02 | 0.02 | 63 | 1007.5 |
| 20260504235817 | 57 | 276 | 0.0 | 0.0 | 0.00 | 0.02 | 0.02 | 62 | 1006.7 |
| 20260504235316 | 57 | 276 | 0.0 | 0.0 | 0.00 | 0.02 | 0.02 | 62 | 1006.6 |
| 20260504234815 | 58 | 276 | 0.0 | 0.0 | 0.00 | 0.02 | 0.02 | 59 | 1006.5 |
| 20260504234527 | 58 | 276 | 0.0 | 0.0 | 0.00 | 0.02 | 0.02 | 55 | 1007.2 |
| 20260504234311 | 58 | 276 | 0.0 | 0.9 | 0.00 | 0.02 | 0.02 | 55 | 1006.4 |
| 20260504233310 | 59 | 276 | 0.9 | 1.7 | 0.00 | 0.02 | 0.02 | 52 | 1006.3 |
| 20260504233118 | 59 | 276 | 0.0 | 1.7 | 0.00 | 0.02 | 0.02 | 55 | 1006.9 |
| 20260504232809 | 59 | 276 | 0.9 | 1.7 | 0.00 | 0.02 | 0.02 | 54 | 1006.2 |
| 20260504232309 | 59 | 276 | 0.0 | 1.7 | 0.00 | 0.02 | 0.02 | 53 | 1006.2 |
| 20260504231809 | 60 | 276 | 0.0 | 0.0 | 0.00 | 0.02 | 0.02 | 55 | 1006.1 |
| 20260504231513 | 60 | 276 | 0.0 | 3.5 | 0.00 | 0.02 | 0.02 | 54 | 1006.7 |
| 20260504231309 | 60 | 276 | 0.0 | 3.5 | 0.00 | 0.02 | 0.02 | 53 | 1006.1 |
| 20260504230308 | 62 | 276 | 0.0 | 0.0 | 0.00 | 0.02 | 0.02 | 53 | 1006.0 |
| 20260504230108 | 62 | 276 | 0.0 | 0.9 | 0.00 | 0.02 | 0.02 | 52 | 1006.6 |
| 20260504225808 | 63 | 276 | 0.0 | 1.7 | 0.00 | 0.02 | 0.02 | 51 | 1006.0 |
| 20260504225308 | 64 | 276 | 0.0 | 1.7 | 0.00 | 0.02 | 0.02 | 48 | 1006.0 |
| 20260504224510 | 64 | 276 | 0.0 | 1.7 | 0.00 | 0.02 | 0.02 | 46 | 1006.6 |
| 20260504224309 | 64 | 276 | 0.0 | 2.6 | 0.00 | 0.02 | 0.02 | 46 | 1005.8 |
| 20260504223809 | 64 | 276 | 0.9 | 2.6 | 0.00 | 0.02 | 0.02 | 43 | 1005.7 |
| 20260504223303 | 64 | 276 | 0.9 | 2.6 | 0.00 | 0.02 | 0.02 | 46 | 1005.7 |
| 20260504223026 | 64 | 276 | 0.0 | 2.6 | 0.00 | 0.02 | 0.02 | 46 | 1006.4 |
| 20260504222301 | 65 | 276 | 0.9 | 4.3 | 0.00 | 0.02 | 0.02 | 43 | 1005.7 |
| 20260504221801 | 65 | 276 | 0.9 | 4.3 | 0.00 | 0.02 | 0.02 | 42 | 1005.7 |
| 20260504221516 | 64 | 276 | 0.9 | 3.5 | 0.00 | 0.02 | 0.02 | 42 | 1006.4 |
| 20260504221301 | 65 | 276 | 1.7 | 3.5 | 0.00 | 0.02 | 0.02 | 43 | 1005.8 |
| 20260504220801 | 65 | 276 | 0.9 | 5.2 | 0.00 | 0.02 | 0.02 | 42 | 1005.8 |
| 20260504220301 | 65 | 276 | 0.9 | 5.2 | 0.00 | 0.02 | 0.02 | 42 | 1005.8 |
| 20260504220110 | 65 | 276 | 0.0 | 3.5 | 0.00 | 0.02 | 0.02 | 41 | 1006.5 |
| 20260504215802 | 65 | 276 | 0.9 | 3.5 | 0.00 | 0.02 | 0.02 | 44 | 1005.8 |
| 20260504215301 | 66 | 276 | 0.9 | 4.3 | 0.00 | 0.02 | 0.02 | 45 | 1005.9 |
| 20260504214801 | 65 | 276 | 0.9 | 4.3 | 0.00 | 0.02 | 0.02 | 45 | 1005.9 |
| 20260504214506 | 64 | 276 | 0.9 | 4.3 | 0.00 | 0.02 | 0.02 | 45 | 1006.6 |
| 20260504214301 | 65 | 276 | 0.0 | 3.5 | 0.00 | 0.02 | 0.02 | 46 | 1005.8 |
| 20260504213801 | 64 | 276 | 0.0 | 1.7 | 0.00 | 0.02 | 0.02 | 45 | 1005.9 |
| 20260504213148 | 63 | 276 | 0.0 | 1.7 | 0.00 | 0.02 | 0.02 | 53 | 1006.7 |
| 20260504212801 | 63 | 276 | 0.0 | 1.7 | 0.00 | 0.02 | 0.02 | 53 | 1006.0 |
| 20260504212301 | 63 | 276 | 0.9 | 2.6 | 0.00 | 0.02 | 0.02 | 48 | 1006.0 |
| 20260504211802 | 63 | 276 | 0.9 | 2.6 | 0.00 | 0.02 | 0.02 | 47 | 1006.0 |
| 20260504211511 | 63 | 276 | 0.9 | 5.2 | 0.00 | 0.02 | 0.02 | 48 | 1006.8 |
| 20260504211301 | 63 | 276 | 0.9 | 5.2 | 0.00 | 0.02 | 0.02 | 48 | 1006.0 |
| 20260504210802 | 63 | 276 | 0.9 | 5.2 | 0.00 | 0.02 | 0.02 | 49 | 1006.0 |
| 20260504210301 | 63 | 276 | 0.0 | 3.5 | 0.00 | 0.02 | 0.02 | 47 | 1006.1 |
| 20260504210104 | 62 | 276 | 0.0 | 1.7 | 0.00 | 0.02 | 0.02 | 50 | 1006.8 |
| 20260504205803 | 63 | 276 | 0.9 | 2.6 | 0.00 | 0.02 | 0.02 | 49 | 1006.1 |
| 20260504205303 | 63 | 276 | 0.9 | 4.3 | 0.00 | 0.02 | 0.02 | 47 | 1006.0 |
| 20260504204802 | 63 | 276 | 0.9 | 4.3 | 0.00 | 0.02 | 0.02 | 47 | 1006.1 |
| 20260504204650 | 62 | 276 | 0.9 | 6.1 | 0.00 | 0.02 | 0.02 | 47 | 1006.7 |
| 20260504204302 | 63 | 276 | 1.7 | 6.1 | 0.00 | 0.02 | 0.02 | 49 | 1006.0 |
| 20260504203302 | 62 | 276 | 2.6 | 7.8 | 0.00 | 0.02 | 0.02 | 49 | 1006.1 |
| 20260504203056 | 61 | 276 | 4.3 | 7.8 | 0.00 | 0.02 | 0.02 | 48 | 1006.9 |
| 20260504202802 | 62 | 276 | 1.7 | 5.2 | 0.00 | 0.02 | 0.02 | 49 | 1006.2 |
| 20260504202304 | 62 | 276 | 1.7 | 7.0 | 0.00 | 0.02 | 0.02 | 50 | 1006.1 |
| 20260504201801 | 61 | 276 | 1.7 | 7.0 | 0.00 | 0.02 | 0.02 | 50 | 1006.1 |
| 20260504201642 | 61 | 276 | 1.7 | 5.2 | 0.00 | 0.02 | 0.02 | 50 | 1006.8 |
| 20260504201300 | 61 | 276 | 0.9 | 6.1 | 0.00 | 0.02 | 0.02 | 52 | 1006.2 |
| 20260504200301 | 60 | 276 | 1.7 | 3.5 | 0.00 | 0.02 | 0.02 | 57 | 1006.4 |
| 20260504200032 | 60 | 276 | 0.0 | 2.6 | 0.00 | 0.02 | 0.02 | 59 | 1007.0 |
| 20260504195802 | 60 | 276 | 0.9 | 2.6 | 0.00 | 0.02 | 0.02 | 59 | 1006.3 |
| 20260504195304 | 59 | 276 | 0.0 | 0.9 | 0.00 | 0.02 | 0.02 | 58 | 1006.3 |
| 20260504194802 | 58 | 276 | 0.0 | 0.9 | 0.00 | 0.02 | 0.02 | 60 | 1006.4 |
| 20260504194627 | 58 | 276 | 0.0 | 0.9 | 0.00 | 0.02 | 0.02 | 64 | 1007.2 |
| 20260504194303 | 58 | 276 | 0.0 | 0.9 | 0.00 | 0.02 | 0.02 | 67 | 1006.4 |
| 20260504193801 | 58 | 276 | 0.0 | 0.9 | 0.00 | 0.02 | 0.02 | 65 | 1006.5 |
| 20260504193301 | 58 | 276 | 0.0 | 0.9 | 0.00 | 0.02 | 0.02 | 65 | 1006.6 |
| 20260504193015 | 57 | 276 | 0.0 | 0.9 | 0.00 | 0.02 | 0.02 | 64 | 1007.3 |
| 20260504192802 | 58 | 276 | 0.0 | 0.0 | 0.00 | 0.02 | 0.02 | 65 | 1006.6 |
| 20260504192304 | 58 | 276 | 0.0 | 0.0 | 0.00 | 0.02 | 0.02 | 65 | 1006.6 |
| 20260504191802 | 57 | 276 | 0.0 | 0.0 | 0.00 | 0.02 | 0.02 | 66 | 1006.6 |
| 20260504191604 | 57 | 276 | 0.0 | 0.0 | 0.00 | 0.02 | 0.02 | 67 | 1007.5 |
| 20260504191302 | 57 | 276 | 0.0 | 0.0 | 0.00 | 0.02 | 0.02 | 67 | 1006.7 |
| 20260504190802 | 56 | 276 | 0.0 | 0.0 | 0.00 | 0.02 | 0.02 | 65 | 1006.6 |
| 20260504190302 | 56 | 276 | 0.0 | 0.9 | 0.00 | 0.02 | 0.02 | 69 | 1006.8 |
| 20260504190201 | 56 | 276 | 0.0 | 0.9 | 0.00 | 0.02 | 0.02 | 70 | 1007.5 |